Location: Cedar Brake
(32.2526°N, 97.8459°W)
Time: 09:05:47
(UTC+00:00)

ERS-1 Rocket - Pass Details

Date: 22 April 2026
Orbit: 747 x 750 km, 98.2° (Epoch: 15 May)

Event Time Altitude Azimuth Distance (km) Brightness Sun altitude
Exits shadow 02:15:34 23° 111° (ESE) 1,564 4.0 -14.8°
Maximum altitude 02:17:38 31° 71° (ENE) 1,292 3.8 -15.2°
Drops below altitude 10° 02:21:59 10° 10° (N) 2,274 5.6 -16.0°
Sets 02:24:30 0° 1° (N) 3,202 6.6 -16.5°
